Погода в Какинаде

Индия     16°56′59″N   82°14′45″E
темп.,
°C
ветер,
м/с
пор.,
м/с
влажн.,
%
обл.,
%
осадки,
мм/ч
давл.,
гПа
погр.,
м
8 мая, сб
сб823:30+29юв23705 0.0 1011324
02:30+28юв01756 0.0 1009273
05:30+28с11795 0.1 1010148
08:30+32в23579 0.0 10121265
11:30+36вюв43415 0.0 10101559
14:30+37вюв43342 0.0 10061367
17:30+34ююв45469 0.0 1005862
20:30+31ю3562100 0.0 1009540
9 мая, вс
вс923:30+30ююз137016 0.0 1009390
02:30+29ююз137416 0.0 1007305
05:30+28ююз117868 0.0 1008146
08:30+33ю225441 0.0 10101299
11:30+37вюв544413 0.0 10081885
14:30+37юв644415 0.0 10051454
17:30+34ю3348100 0.4 10051319
20:30+29ю1372100 3.6 1007220
10 мая, пн
пн1023:30+29зюз247593 3.6 1007315
02:30+28зюз127818 0.0 1005209
05:30+27з128432 0.0 1007145
08:30+32юз23586 0.0 10081259
11:30+38юв333910 0.0 10062065
14:30+38ююв554158 0.1 10031845
17:30+34ю55508 0.3 1003855
20:30+31ююз246794 0.6 1006352
11 мая, вт
вт1123:30+30юв127352 0.6 1007268
02:30+29зюз137956 0.0 1005299
05:30+28з238311 0.0 1006212
08:30+34юз355610 0.1 10071335
11:30+40зюз233373 0.1 10052243
14:30+40юв253581 0.0 10022695
17:30+35ю67501 0.0 1001837
20:30+31всв2367100 0.7 1006515
12 мая, ср
ср1223:30+30ююз3673100 0.8 1004418
02:30+30зюз2574100 0.0 1004596
05:30+29зюз147936 0.0 1005334
08:30+33юз346095 0.0 10071189
11:30+40ю243634 0.0 10042409
14:30+38ююз234187 0.1 10001759
17:30+36ююз564881 0.4 999946
20:30+27с1476100 9.6 1007347